Location: Callao
(39.8979°N, 113.7141°W)
Time: 06:50:00
(UTC+00:00)

AO-91 - Visible Passes

Search period start: 11 May 2021 00:00
Search period end: 21 May 2021 00:00
Orbit: 451 x 811 km, 97.7° (Epoch: 11 May)

Date Brightness Start Highest point End Pass type
(mag) Time Alt. Az. Time Alt. Az. Time Alt. Az.
11 May ? 07:05:02 10° NNE 07:06:30 23° NNE 07:06:30 23° NNE visible
12 May ? 07:25:43 10° N 07:27:29 25° N 07:27:29 25° N visible
13 May ? 06:10:42 10° NE 06:11:04 12° NE 06:11:04 12° NE visible
13 May ? 07:46:35 10° N 07:48:28 23° NNW 07:48:28 23° NNW visible
14 May ? 06:30:43 10° NNE 06:32:03 19° NE 06:32:03 19° NE visible
14 May ? 08:07:44 10° NNW 08:09:26 17° NW 08:09:26 17° NW visible
15 May ? 06:51:03 10° NNE 06:53:01 27° NNE 06:53:01 27° NNE visible
15 May ? 08:29:30 10° NW 08:30:25 12° NW 08:30:25 12° NW visible
16 May ? 07:11:36 10° N 07:14:00 35° N 07:14:00 35° N visible
17 May ? 05:57:15 10° NE 05:57:35 11° ENE 05:57:35 11° ENE visible
17 May ? 07:32:20 10° N 07:34:58 33° NNW 07:34:58 33° NNW visible
18 May ? 06:16:59 10° NE 06:18:34 19° NE 06:18:34 19° NE visible
18 May ? 07:53:16 10° NNW 07:55:58 26° NW 07:55:58 26° NW visible
19 May ? 06:37:09 10° NNE 06:39:32 29° NE 06:39:32 29° NE visible
19 May ? 08:14:29 10° NNW 08:16:56 18° WNW 08:16:56 18° WNW visible
20 May ? 06:57:35 10° NNE 07:00:31 42° NNE 07:00:31 42° NNE visible
20 May ? 08:36:28 10° NW 08:37:54 11° WNW 08:37:54 11° WNW visible
